Date,TemperatureHighF,TemperatureAvgF,TemperatureLowF,DewpointHighF,DewpointAvgF,DewpointLowF,HumidityHigh,HumidityAvg,HumidityLow,PressureMaxIn,PressureMinIn,WindSpeedMaxMPH,WindSpeedAvgMPH,GustSpeedMaxMPH,PrecipitationSumIn
2013-5-1,64.5,49.1,33.5,39.0,33.4,27.0,92,60,25,30.58,30.45,4,1,0,0.00
2013-5-2,69.3,54.2,40.3,45.0,39.3,35.0,88,60,34,30.55,30.38,5,1,0,0.00
2013-5-3,70.8,57.2,43.1,49.0,43.2,39.0,88,62,42,30.39,30.23,7,1,0,0.00
2013-5-4,77.0,61.9,45.4,52.0,43.7,38.0,89,56,26,30.24,30.00,7,1,0,0.00
2013-5-5,82.8,66.1,49.8,50.0,44.1,40.0,81,50,22,29.99,29.77,7,2,0,0.00
2013-5-6,84.9,75.7,60.5,49.0,44.4,40.0,57,34,22,29.84,29.74,6,2,0,0.00
2013-5-7,69.9,60.2,51.9,53.0,49.9,46.0,86,70,52,30.00,29.81,11,2,0,0.00
2013-5-8,65.2,56.1,51.0,52.0,49.2,47.0,88,78,60,30.15,30.01,5,1,0,0.00
2013-5-9,69.4,57.2,48.5,54.0,49.8,46.0,92,78,46,30.22,30.12,8,1,0,0.00
2013-5-10,78.5,63.1,48.2,56.0,51.0,46.0,94,68,35,30.20,30.11,6,1,0,0.00
2013-5-11,80.5,67.1,55.7,57.0,49.6,42.0,79,55,37,30.17,29.98,6,1,0,0.00
2013-5-12,70.6,63.1,57.3,57.0,55.4,52.0,90,77,55,30.10,30.02,7,2,0,0.31
2013-5-13,64.5,57.4,54.5,57.0,53.3,48.0,92,86,69,30.05,29.93,19,2,0,0.23
2013-5-14,64.2,57.4,49.1,41.0,35.4,-99.9,72,48,33,30.20,30.12,9,-21,0,0.00
2013-5-15,65.2,52.8,43.8,51.0,45.1,40.0,90,77,48,30.13,30.02,10,1,0,0.08
2013-5-16,70.4,60.1,52.3,53.0,50.0,45.0,92,72,42,30.02,29.86,9,2,0,0.01
2013-5-17,61.5,56.0,52.8,51.0,48.9,46.0,90,77,59,30.07,29.95,6,2,0,0.07
2013-5-18,60.7,55.5,51.3,48.0,45.8,44.0,84,71,55,30.27,30.07,5,1,0,0.00
2013-5-19,66.0,56.4,50.1,50.0,47.6,45.0,84,73,56,30.41,30.28,9,1,0,0.00
2013-5-20,67.3,55.4,45.4,51.0,46.8,43.0,93,75,44,30.36,29.91,7,1,0,0.00
2013-5-21,59.5,50.4,45.4,49.0,44.5,41.0,92,81,54,29.90,29.78,7,2,0,0.38
2013-5-22,53.9,47.1,43.1,46.0,43.0,41.0,91,86,71,29.95,29.86,7,2,0,0.15
2013-5-23,58.4,49.3,43.9,47.0,44.0,40.0,91,82,55,30.02,29.94,5,1,0,0.11
2013-5-24,63.5,53.4,45.8,48.0,44.6,42.0,91,74,47,30.06,29.98,7,1,0,0.01
2013-5-25,63.9,55.3,49.4,47.0,45.3,42.0,86,71,47,30.05,29.97,10,2,0,0.00
2013-5-26,64.7,55.7,49.1,54.0,49.4,45.0,89,80,62,29.99,29.94,8,1,0,0.06
2013-5-27,60.1,55.5,49.8,56.0,51.6,46.0,91,87,78,29.97,29.72,7,1,0,0.21
2013-5-28,62.1,55.5,51.3,52.0,49.4,47.0,91,80,62,29.89,29.77,7,1,0,0.05
2013-5-29,61.3,53.8,49.4,52.0,48.1,46.0,91,81,64,29.97,29.69,11,2,0,0.09
2013-5-30,63.4,54.7,47.9,48.0,45.0,42.0,85,71,48,30.25,29.98,11,3,0,0.00
2013-5-31,66.3,57.0,49.9,48.0,44.4,40.0,85,65,41,30.35,30.25,11,1,0,0.00